Location: Huntsville
(41.2590°N, 111.7678°W)
Time: 07:33:57
(UTC+00:00)

Vanguard 3 - Pass Details

Date: 17 June 2021
Orbit: 508 x 3261 km, 33.4° (Epoch: 29 July)

Event Time Altitude Azimuth Distance (km) Brightness Sun altitude
Rises 22:12:29 0° 259° (W) 4,437 11.5 51.4°
Reaches altitude 10° 22:17:18 10° 235° (SW) 4,009 11.5 50.6°
Maximum altitude 22:22:05 14° 209° (SSW) 4,207 11.4 49.7°
Drops below altitude 10° 22:27:56 10° 184° (S) 5,058 11.5 48.6°
Sets 22:35:58 0° 163° (SSE) 6,663 11.8 47.1°
